[[{"header":{"parameterUnit":"m.s-1","parameterCategory":1,"la1":30.2991,"la2":30.254,"lo1":-89.0895,"lo2":-89.0444,"dy":0.0017,"dx":0.0017,"nx":28,"ny":28,"refTime":"2023-11-23T03:00:00:Z","depth":0,"parameterNumber":2,"parameterNumberName":"U-component_of_WINDS"},"data":[0,0,0,0,0,0,0,0,0,0,0,0,0,0,0,0,0,0,0,0,0,0,0,0,0,0,0,0,0,0,0,0,0,0,0,0,0,0,0,0,0,0,0,0,0,0,0,0,0,0,0,0,0,0,0,0,0,0,-1.2605,-1.2605,0,-1.266,-1.2661,-1.2661,-1.2607,-1.2605,-1.2603,-1.2601,-1.2657,-1.2661,-1.2664,0,0,0,0,0,0,0,0,0,0,0,0,0,-1.245,-1.2453,-1.2605,-1.2605,-1.2606,-1.266,-1.2661,-1.2662,-1.2608,-1.2605,-1.2602,-1.26,-1.2656,-1.266,-1.2665,0,0,0,0,0,0,0,0,0,0,0,0,0,-1.2512,-1.2454,-1.2605,-1.2586,-1.2584,-1.266,-1.2661,-1.2662,-1.2608,-1.2605,-1.2602,-1.2599,-1.2655,-1.266,-1.2665,-1.2762,0,0,-1.2681,-1.2684,0,0,0,0,0,0,0,0,-1.2509,-1.2518,-1.2588,-1.2587,-1.2586,-1.2623,-1.2627,-1.2695,-1.2609,-1.2599,-1.2601,-1.2597,-1.2649,-1.2654,-1.2672,-1.2765,-1.2767,-1.2682,-1.2685,-1.2687,-1.2689,0,0,0,0,0,0,0,-1.2505,-1.2515,-1.2627,-1.2589,-1.2588,-1.2574,-1.2579,-1.264,-1.2641,-1.26,-1.2596,-1.2603,-1.2648,-1.2667,-1.2673,-1.2768,-1.2682,-1.2686,-1.2689,-1.2692,-1.2942,-1.2945,0,0,0,0,0,0,-1.2503,-1.2512,-1.2625,-1.2628,-1.2539,-1.2579,-1.2585,-1.2615,-1.264,-1.2641,-1.2606,-1.26,-1.2659,-1.2667,-1.2674,-1.2789,-1.2687,-1.2692,-1.2695,-1.2938,-1.2942,-1.2946,0,0,0,0,0,0,-1.2499,-1.2513,-1.2623,-1.2569,-1.2582,-1.2585,-1.2619,-1.2617,-1.2637,-1.2645,-1.2645,-1.2625,-1.2657,-1.2667,-1.274,-1.279,-1.2694,-1.2699,-1.2934,-1.2939,-1.2944,-1.302,0,0,0,0,0,0,-1.2495,-1.2512,-1.255,-1.257,-1.2585,-1.2689,-1.2622,-1.2621,-1.2646,-1.2639,-1.2663,-1.2664,-1.2655,-1.2733,-1.2746,-1.2796,-1.2703,-1.293,-1.2936,-1.2943,-1.3013,-1.3027,-1.3039,0,0,0,0,0,-1.249,-1.2569,-1.2552,-1.2566,-1.2632,-1.2692,-1.27,-1.2688,-1.265,-1.2688,-1.2693,-1.2664,-1.2782,-1.2741,-1.2755,-1.2807,-1.2926,-1.2934,-1.2942,-1.3007,-1.3024,-1.3039,0,0,0,0,0,0,-1.2555,-1.2572,-1.2553,-1.2641,-1.2665,-1.2682,-1.2729,-1.2707,-1.2742,-1.2735,-1.2718,-1.2724,-1.2801,-1.2811,-1.2765,-1.2902,-1.2848,-1.2859,-1.2893,-1.2909,-1.2922,-1.2919,-1.2708,0,0,0,0,0,-1.2579,-1.2627,-1.2638,-1.2715,-1.2728,-1.2727,-1.2752,-1.2741,-1.2765,-1.2775,-1.2785,-1.281,-1.2852,-1.2881,-1.2921,-1.3013,-1.3017,-1.3056,-1.3069,-1.308,-1.309,-1.3139,-1.3156,-1.2972,-1.2972,-1.2972,0,0,-1.2631,-1.2646,-1.2677,-1.2729,-1.2746,-1.2795,-1.2736,-1.279,-1.2826,-1.2783,-1.2853,-1.2861,-1.2887,-1.2971,-1.3008,-1.2981,-1.3141,-1.309,-1.3098,-1.3103,-1.3149,-1.3166,-1.3181,-1.2977,-1.2976,-1.2975,0,0,-1.275,-1.2766,-1.2832,-1.285,-1.2876,-1.2874,-1.289,-1.291,-1.2914,-1.2984,-1.2952,-1.2994,-1.3068,-1.3087,-1.3107,-1.323,-1.3205,-1.3244,-1.3313,-1.336,-1.3375,-1.3388,-1.3432,-1.3448,-1.3253,-1.3254,-1.3254,0,-1.2811,-1.2884,-1.2868,-1.2925,-1.2948,-1.291,-1.2976,-1.2994,-1.3033,-1.3049,-1.3019,-1.311,-1.3124,-1.3211,-1.3241,-1.3258,-1.3275,-1.3242,-1.3374,-1.3387,-1.3398,-1.344,-1.3457,-1.3258,-1.3258,-1.3257,-1.3257,0,-1.2957,-1.3007,-1.3057,-1.3095,-1.3123,-1.3184,-1.3177,-1.3208,-1.3193,-1.3194,-1.3264,-1.328,-1.3322,-1.3341,-1.3328,-1.3426,-1.3409,-1.3376,-1.3323,-1.3421,-1.346,-1.3476,-1.3265,-1.3263,-1.3262,-1.3261,0,0,-1.3121,-1.3147,-1.3166,-1.3182,-1.3208,-1.3246,-1.3304,-1.3345,-1.3371,-1.3398,-1.3446,-1.3509,-1.3478,-1.3501,-1.3488,-1.353,-1.3626,-1.3492,-1.3492,-1.3517,-1.3735,-1.376,-1.3779,-1.3609,-1.3612,-1.3614,-1.3733,0,-1.3241,-1.3343,-1.3329,-1.3427,-1.3473,-1.3436,-1.3487,-1.3507,-1.3509,-1.3548,-1.3549,-1.3594,-1.355,-1.3563,-1.3603,-1.3607,-1.367,-1.3597,-1.3653,-1.3656,-1.3649,-1.3799,-1.3826,-1.3938,-1.3748,-1.3751,-1.3752,0,-1.3395,-1.3427,-1.3529,-1.3546,-1.3565,-1.3611,-1.3646,-1.3684,-1.3706,-1.3704,-1.3728,-1.3707,-1.3764,-1.3708,-1.3786,-1.3737,-1.3758,-1.3763,-1.3767,-1.3773,-1.3711,-1.381,-1.3973,-1.399,-1.3776,-1.3774,-1.3773,0,-1.3505,-1.3574,-1.3643,-1.3658,-1.3679,-1.3712,-1.3723,-1.3741,-1.3766,-1.3796,-1.3812,-1.3849,-1.3869,-1.3897,-1.3887,-1.3847,-1.3967,-1.391,-1.3967,-1.3968,-1.3996,-1.3994,-1.4166,-1.4008,-1.4008,-1.4007,-1.4007,0,-1.3641,-1.3705,-1.3693,-1.3736,-1.3806,-1.3789,-1.3858,-1.3864,-1.388,-1.3923,-1.3893,-1.3934,-1.3917,-1.3956,-1.3948,-1.4014,-1.4023,-1.4023,-1.402,-1.4026,-1.4026,-1.4041,-1.4034,-1.4012,-1.4011,-1.401,-1.4009,0,-1.3777,-1.3771,-1.3845,-1.3858,-1.3863,-1.3914,-1.3925,-1.3965,-1.3963,-1.4018,-1.4029,-1.4027,-1.4071,-1.4063,-1.4112,-1.4106,-1.4189,-1.4176,-1.4182,-1.4179,-1.4237,-1.4232,-1.4424,-1.4449,-1.4275,-1.4276,-1.4278,0,-1.3865,-1.3913,-1.3932,-1.3958,-1.3971,-1.4014,-1.4039,-1.4023,-1.405,-1.4077,-1.4113,-1.4155,-1.4187,-1.426,-1.4262,-1.4299,-1.4287,-1.4352,-1.4293,-1.4297,-1.4289,-1.4286,-1.4291,-1.4364,-1.4366,-1.4368,-1.4369,0,-1.4022,-1.4016,-1.4053,-1.4089,-1.4119,-1.4147,-1.4171,-1.4194,-1.418,-1.4212,-1.4257,-1.4282,-1.4331,-1.4373,-1.4406,-1.4416,-1.4391,-1.4388,-1.4403,-1.441,-1.4412,-1.4412,-1.4215,-1.4384,-1.4382,-1.4381,-1.438,-1.438,-1.4137,-1.4178,-1.4197,-1.4238,-1.4255,-1.4278,-1.4316,-1.4318,-1.4355,-1.4394,-1.4382,-1.4433,-1.4451,-1.4494,-1.4507,-1.4546,-1.4522,-1.4544,-1.455,-1.4556,-1.4563,-1.4404,-1.4552,-1.4552,-1.4552,-1.4551,-1.4551,0,-1.4293,-1.4302,-1.4341,-1.4376,-1.4408,-1.438,-1.4405,-1.4434,-1.4479,-1.4499,-1.4531,-1.4582,-1.4621,-1.4626,-1.4662,-1.4693,-1.4682,-1.4703,-1.4701,-1.4704,-1.4582,-1.4566,-1.4711,-1.4711,-1.4711,-1.4711,-1.4711,-1.4711,-1.4378,-1.4445,-1.4441,-1.4515,-1.4524,-1.4574,-1.4591,-1.4611,-1.4626,-1.4685,-1.4717,-1.4719,-1.4732,-1.477,-1.4804,-1.4804,-1.4819,-1.4845,-1.4841,-1.4728,-1.4712,-1.4697,-1.4681,-1.4848,-1.4849,-1.4959,-1.496,-1.4961]},{"header":{"parameterUnit":"m.s-1","parameterCategory":1,"la1":30.2991,"la2":30.254,"lo1":-89.0895,"lo2":-89.0444,"dy":0.0017,"dx":0.0017,"nx":28,"ny":28,"refTime":"2023-11-23T03:00:00:Z","depth":0,"parameterNumber":3,"parameterNumberName":"V-component_of_WINDS"},"data":[0,0,0,0,0,0,0,0,0,0,0,0,0,0,0,0,0,0,0,0,0,0,0,0,0,0,0,0,0,0,0,0,0,0,0,0,0,0,0,0,0,0,0,0,0,0,0,0,0,0,0,0,0,0,0,0,0,0,-2.7477,-2.7479,0,-2.7584,-2.7585,-2.7586,-2.7566,-2.7564,-2.7562,-2.756,-2.7666,-2.7671,-2.7675,0,0,0,0,0,0,0,0,0,0,0,0,0,-2.7253,-2.7257,-2.7477,-2.7479,-2.748,-2.7584,-2.7585,-2.7586,-2.7566,-2.7564,-2.7561,-2.7559,-2.7665,-2.767,-2.7676,0,0,0,0,0,0,0,0,0,0,0,0,0,-2.7354,-2.7258,-2.7477,-2.7482,-2.7484,-2.7583,-2.7585,-2.7587,-2.7566,-2.7563,-2.7561,-2.7558,-2.7663,-2.767,-2.7677,-2.7777,0,0,-2.7698,-2.7701,0,0,0,0,0,0,0,0,-2.7348,-2.7362,-2.748,-2.7482,-2.7484,-2.7558,-2.7545,-2.765,-2.7567,-2.7535,-2.756,-2.7556,-2.7633,-2.7642,-2.7668,-2.7782,-2.7786,-2.7698,-2.7703,-2.7705,-2.7707,0,0,0,0,0,0,0,-2.7341,-2.7357,-2.7519,-2.7482,-2.7484,-2.7478,-2.7489,-2.7565,-2.7598,-2.7538,-2.7536,-2.7549,-2.7633,-2.7661,-2.767,-2.7788,-2.7698,-2.7704,-2.7709,-2.7711,-2.7987,-2.799,0,0,0,0,0,0,-2.7333,-2.7352,-2.7516,-2.7523,-2.7408,-2.7484,-2.7497,-2.7537,-2.7598,-2.7604,-2.7552,-2.7548,-2.7651,-2.7662,-2.7674,-2.7795,-2.7705,-2.7712,-2.7716,-2.7984,-2.7988,-2.7991,0,0,0,0,0,0,-2.7328,-2.7348,-2.7512,-2.7437,-2.7457,-2.7491,-2.7537,-2.7541,-2.7569,-2.7608,-2.7614,-2.7575,-2.7649,-2.7664,-2.7751,-2.7798,-2.7715,-2.7721,-2.798,-2.7985,-2.799,-2.8037,0,0,0,0,0,0,-2.7322,-2.7346,-2.7386,-2.7438,-2.7461,-2.7589,-2.754,-2.7545,-2.7582,-2.7578,-2.7631,-2.7638,-2.7648,-2.7741,-2.7758,-2.7806,-2.7727,-2.7976,-2.7982,-2.7988,-2.8031,-2.8043,-2.8052,0,0,0,0,0,-2.7314,-2.7394,-2.7388,-2.7408,-2.7512,-2.7591,-2.7605,-2.7616,-2.7586,-2.7625,-2.7649,-2.7636,-2.779,-2.775,-2.7769,-2.782,-2.7973,-2.7981,-2.7988,-2.8027,-2.804,-2.8052,0,0,0,0,0,0,-2.7346,-2.7401,-2.7395,-2.7495,-2.7539,-2.7588,-2.7638,-2.763,-2.7683,-2.7677,-2.7688,-2.77,-2.7788,-2.7812,-2.7767,-2.7919,-2.7877,-2.7888,-2.79,-2.7914,-2.7924,-2.7916,-2.7733,0,0,0,0,0,-2.7365,-2.7426,-2.7471,-2.7555,-2.7577,-2.7604,-2.7639,-2.7644,-2.7689,-2.7707,-2.7738,-2.7782,-2.784,-2.7878,-2.7934,-2.8034,-2.8045,-2.8078,-2.8089,-2.8097,-2.8107,-2.816,-2.8176,-2.8015,-2.8015,-2.8015,0,0,-2.7405,-2.7443,-2.7481,-2.7562,-2.7597,-2.7659,-2.7619,-2.7687,-2.7732,-2.7717,-2.7801,-2.7825,-2.7874,-2.7968,-2.8011,-2.7991,-2.8153,-2.8106,-2.8113,-2.8118,-2.8169,-2.8185,-2.8198,-2.802,-2.8019,-2.8018,0,0,-2.7509,-2.7544,-2.7618,-2.7653,-2.7705,-2.7722,-2.7739,-2.779,-2.7805,-2.789,-2.7879,-2.7932,-2.8033,-2.8068,-2.8099,-2.8214,-2.8203,-2.8232,-2.8287,-2.8339,-2.8351,-2.8363,-2.8403,-2.8417,-2.8241,-2.8241,-2.8241,0,-2.7552,-2.7646,-2.7656,-2.7724,-2.776,-2.7749,-2.7822,-2.7856,-2.7923,-2.7948,-2.7924,-2.8049,-2.8081,-2.8183,-2.8211,-2.8236,-2.8256,-2.8226,-2.8349,-2.836,-2.8371,-2.841,-2.8425,-2.8244,-2.8244,-2.8244,-2.8243,0,-2.7695,-2.776,-2.7812,-2.7879,-2.792,-2.7991,-2.801,-2.8051,-2.8051,-2.807,-2.8155,-2.8193,-2.8256,-2.828,-2.8281,-2.8381,-2.8367,-2.8346,-2.8305,-2.8389,-2.8426,-2.8441,-2.8249,-2.8248,-2.8247,-2.8246,0,0,-2.7824,-2.7894,-2.7913,-2.7942,-2.7998,-2.8048,-2.8117,-2.8179,-2.8213,-2.8259,-2.8317,-2.8401,-2.8382,-2.8417,-2.8421,-2.8467,-2.8555,-2.8441,-2.8442,-2.846,-2.8666,-2.8681,-2.8698,-2.8547,-2.855,-2.8552,-2.8661,0,-2.7933,-2.8056,-2.8066,-2.8177,-2.8236,-2.8225,-2.8285,-2.8325,-2.8344,-2.8396,-2.8416,-2.8475,-2.8446,-2.8467,-2.8511,-2.8535,-2.8596,-2.8527,-2.86,-2.8602,-2.8588,-2.8717,-2.8734,-2.8835,-2.8676,-2.8678,-2.868,0,-2.8077,-2.8128,-2.8244,-2.8291,-2.8316,-2.837,-2.8426,-2.8476,-2.8521,-2.8531,-2.857,-2.8568,-2.8637,-2.8592,-2.8687,-2.864,-2.867,-2.8685,-2.8689,-2.8697,-2.8646,-2.8728,-2.8868,-2.8883,-2.8702,-2.8701,-2.8699,0,-2.8159,-2.8256,-2.8338,-2.8363,-2.842,-2.8458,-2.8483,-2.8525,-2.856,-2.8609,-2.8632,-2.8688,-2.8719,-2.8762,-2.8774,-2.8741,-2.8868,-2.8825,-2.8878,-2.8878,-2.8906,-2.8904,-2.9052,-2.8925,-2.8925,-2.8925,-2.8924,0,-2.8279,-2.8351,-2.8375,-2.8426,-2.8505,-2.8515,-2.8592,-2.8615,-2.8652,-2.8705,-2.8699,-2.8749,-2.8763,-2.8815,-2.8825,-2.8901,-2.8915,-2.8924,-2.8926,-2.8925,-2.8924,-2.8945,-2.8938,-2.8929,-2.8928,-2.8927,-2.8926,0,-2.8385,-2.8404,-2.8493,-2.8538,-2.8551,-2.8608,-2.8646,-2.8694,-2.8711,-2.8778,-2.8795,-2.8821,-2.8882,-2.8899,-2.8971,-2.8978,-2.9068,-2.9063,-2.9053,-2.9053,-2.9105,-2.91,-2.9273,-2.9295,-2.9153,-2.9154,-2.9156,0,-2.8461,-2.8515,-2.8567,-2.8602,-2.8629,-2.8687,-2.8723,-2.8734,-2.8772,-2.8826,-2.8867,-2.8927,-2.8976,-2.9073,-2.9098,-2.9153,-2.9149,-2.9206,-2.9158,-2.9154,-2.915,-2.9146,-2.9151,-2.9215,-2.9217,-2.9218,-2.9219,0,-2.8593,-2.8599,-2.8653,-2.8709,-2.8753,-2.8798,-2.8841,-2.887,-2.8887,-2.893,-2.8992,-2.903,-2.9103,-2.9163,-2.9218,-2.9242,-2.9233,-2.9234,-2.9249,-2.9249,-2.9241,-2.9245,-2.9078,-2.923,-2.9229,-2.9228,-2.9228,-2.9227,-2.8686,-2.8733,-2.8777,-2.8836,-2.8869,-2.8909,-2.8956,-2.8978,-2.9031,-2.9092,-2.9095,-2.9162,-2.9203,-2.9277,-2.9304,-2.9356,-2.9339,-2.9361,-2.9366,-2.9372,-2.9376,-2.9232,-2.9366,-2.9366,-2.9365,-2.9365,-2.9365,0,-2.8817,-2.8844,-2.8899,-2.8959,-2.9005,-2.8993,-2.9039,-2.9078,-2.9137,-2.9177,-2.9225,-2.9295,-2.9352,-2.9381,-2.9437,-2.9473,-2.947,-2.9487,-2.9485,-2.949,-2.9388,-2.9369,-2.9488,-2.9488,-2.9488,-2.9488,-2.9488,-2.9488,-2.8891,-2.8971,-2.8982,-2.9077,-2.9104,-2.917,-2.9197,-2.9233,-2.9265,-2.9344,-2.9392,-2.941,-2.9445,-2.9503,-2.9554,-2.9561,-2.9582,-2.9601,-2.9606,-2.951,-2.9498,-2.9486,-2.9468,-2.9605,-2.9606,-2.9703,-2.9704,-2.9705]}]]